Date String (YYYY-MM-DD hh:mm:ss) UTC,Instrument flags,Ambient pressure (hPa),Sample flow (lpm),Bypass flow (lpm),Sample temperature (°C),Ambient temperature (°C),ASC tube jacket temperature (°C),LED temperature (°C),Box temperature (°C),Sample RH (%),Mass concentration (μg/m³),Mass concentration (μg/m³)
DateTimeUTC,F1_M11,P_M11,Q1_M11,Q2_M11,T1_M11,T2_M11,T3_M11,T4_M11,T5_M11,U1_M11,X0_M11,X2_M11
2021-08-12 09:00:00,FlowAlarm;OPCInstrumentWarning,0827.9,4.99,0.00,29.8,28.9,00.0,38.9,31.7,13.9,0034.79,0025.83
2021-08-12 09:01:00,FlowAlarm;OPCInstrumentWarning,0828.0,5.00,0.00,29.8,29.0,00.0,38.9,31.8,13.9,0035.28,0025.76
2021-08-12 09:02:00,FlowAlarm;OPCInstrumentWarning,0827.9,5.01,0.00,29.9,29.0,00.0,38.9,31.8,13.8,0035.18,0025.70
2021-08-12 09:03:00,FlowAlarm;OPCInstrumentWarning,0828.0,5.00,0.00,29.9,29.0,00.0,38.9,31.8,13.8,0035.34,0025.65
2021-08-12 09:04:00,FlowAlarm;OPCInstrumentWarning,0828.0,4.99,0.00,29.9,28.9,00.0,39.0,31.8,13.7,0034.72,0025.59
2021-08-12 09:05:00,FlowAlarm;OPCInstrumentWarning,0828.0,5.01,0.00,29.8,27.2,00.0,38.9,31.3,13.7,0034.63,0025.59
2021-08-12 09:06:00,FlowAlarm;OPCInstrumentWarning,0827.9,4.98,0.00,29.7,26.4,00.0,38.9,31.2,13.8,0034.65,0025.57
2021-08-12 09:07:00,FlowAlarm;OPCInstrumentWarning,0828.0,5.01,0.00,29.6,26.6,00.0,38.9,31.2,13.9,0035.37,0025.56
2021-08-12 09:08:00,FlowAlarm;OPCInstrumentWarning,0828.0,5.00,0.00,29.5,27.0,00.0,38.8,31.2,14.0,0036.09,0025.54
2021-08-12 09:09:00,FlowAlarm;OPCInstrumentWarning,0828.0,5.01,0.00,29.5,27.4,00.0,38.8,31.2,14.0,0036.07,0025.55
2021-08-12 09:10:00,FlowAlarm;OPCInstrumentWarning,0828.0,5.00,0.00,29.5,27.7,00.0,38.8,31.3,13.9,0035.98,0025.52
2021-08-12 09:11:00,FlowAlarm;OPCInstrumentWarning,0828.0,5.00,0.00,29.5,27.9,00.0,38.8,31.3,13.8,0035.52,0025.46
2021-08-12 09:12:00,FlowAlarm;OPCInstrumentWarning,0828.0,5.00,0.00,29.5,28.1,00.0,38.8,31.4,13.9,0034.89,0025.46
2021-08-12 09:13:00,FlowAlarm;OPCInstrumentWarning,0828.0,4.99,0.00,29.5,28.2,00.0,38.8,31.4,13.8,0034.90,0025.47
2021-08-12 09:14:00,FlowAlarm;OPCInstrumentWarning,0827.9,5.01,0.00,29.5,28.4,00.0,38.8,31.5,13.6,0035.07,0025.47
2021-08-12 09:15:00,FlowAlarm;OPCInstrumentWarning,0828.0,4.99,0.00,29.6,28.4,00.0,38.8,31.5,13.6,0035.25,0025.44
2021-08-12 09:16:00,FlowAlarm;OPCInstrumentWarning,0828.0,5.01,0.00,29.6,28.5,00.0,38.8,31.5,13.7,0035.44,0025.35
2021-08-12 09:17:00,FlowAlarm;OPCInstrumentWarning,0827.9,4.99,0.00,29.6,28.6,00.0,38.8,31.6,13.6,0035.60,0025.31
2021-08-12 09:18:00,FlowAlarm;OPCInstrumentWarning,0828.0,5.00,0.00,29.7,28.7,00.0,38.8,31.6,13.6,0034.88,0025.22
2021-08-12 09:19:00,FlowAlarm;OPCInstrumentWarning,0827.9,5.00,0.00,29.7,28.8,00.0,38.8,31.7,13.6,0034.51,0025.23
2021-08-12 09:20:00,FlowAlarm;OPCInstrumentWarning,0827.9,5.01,0.00,29.7,28.8,00.0,38.9,31.7,13.4,0034.97,0025.19
2021-08-12 09:21:00,FlowAlarm;OPCInstrumentWarning,0828.0,5.01,0.00,29.8,28.8,00.0,38.9,31.7,13.6,0035.01,0025.22
2021-08-12 09:22:00,FlowAlarm;OPCInstrumentWarning,0828.0,5.00,0.00,29.8,28.9,00.0,38.9,31.8,13.5,0035.25,0025.19
2021-08-12 09:23:00,FlowAlarm;OPCInstrumentWarning,0828.0,4.99,0.00,29.8,28.9,00.0,38.9,31.7,13.5,0035.27,0025.17
2021-08-12 09:24:00,FlowAlarm;OPCInstrumentWarning,0828.0,5.00,0.00,29.9,29.0,00.0,38.9,31.8,13.4,0035.75,0025.13
2021-08-12 09:25:00,FlowAlarm;OPCInstrumentWarning,0828.0,5.01,0.00,29.9,29.0,00.0,39.0,31.8,13.5,0035.37,0025.09
2021-08-12 09:26:00,FlowAlarm;OPCInstrumentWarning,0828.0,5.00,0.00,29.9,28.7,00.0,39.0,31.7,13.4,0034.97,0025.04
2021-08-12 09:27:00,FlowAlarm;OPCInstrumentWarning,0827.9,5.01,0.00,29.8,27.0,00.0,39.0,31.3,13.4,0034.72,0025.02
2021-08-12 09:28:00,FlowAlarm;OPCInstrumentWarning,0828.0,4.99,0.00,29.7,26.4,00.0,38.9,31.2,13.6,0035.54,0025.02
2021-08-12 09:29:00,FlowAlarm;OPCInstrumentWarning,0828.0,5.01,0.00,29.6,26.7,00.0,38.9,31.2,13.6,0035.71,0025.05
2021-08-12 09:30:00,FlowAlarm;OPCInstrumentWarning,0828.0,4.99,0.00,29.5,27.1,00.0,38.9,31.2,13.8,0035.40,0025.02
2021-08-12 09:31:00,FlowAlarm;OPCInstrumentWarning,0828.0,4.99,0.00,29.5,27.4,00.0,38.8,31.3,13.8,0035.42,0025.01
2021-08-12 09:32:00,FlowAlarm;OPCInstrumentWarning,0828.0,5.01,0.00,29.5,27.7,00.0,38.8,31.3,13.8,0035.98,0025.00
2021-08-12 09:33:00,FlowAlarm;OPCInstrumentWarning,0828.1,5.01,0.00,29.5,27.9,00.0,38.8,31.4,13.7,0036.20,0024.96
2021-08-12 09:34:00,FlowAlarm;OPCInstrumentWarning,0828.0,4.99,0.00,29.5,28.1,00.0,38.8,31.4,13.7,0035.97,0024.91
2021-08-12 09:35:00,FlowAlarm;OPCInstrumentWarning,0828.0,4.99,0.00,29.6,28.3,00.0,38.8,31.5,13.7,0035.30,0024.91
2021-08-12 09:36:00,FlowAlarm;OPCInstrumentWarning,0828.0,5.00,0.00,29.6,28.4,00.0,38.8,31.5,13.6,0034.87,0024.86
2021-08-12 09:37:00,FlowAlarm;OPCInstrumentWarning,0828.0,5.02,0.00,29.6,28.5,00.0,38.8,31.5,13.6,0034.67,0024.82
2021-08-12 09:38:00,FlowAlarm;OPCInstrumentWarning,0828.0,4.99,0.00,29.6,28.6,00.0,38.8,31.6,13.6,0034.37,0024.79
2021-08-12 09:39:00,FlowAlarm;OPCInstrumentWarning,0828.0,5.00,0.00,29.7,28.6,00.0,38.8,31.6,13.6,0033.31,0024.69
2021-08-12 09:40:00,FlowAlarm;OPCInstrumentWarning,0828.0,4.98,0.00,29.7,28.7,00.0,38.9,31.7,13.5,0033.58,0024.63
2021-08-12 09:41:00,FlowAlarm;OPCInstrumentWarning,0828.0,5.01,0.00,29.7,28.8,00.0,38.9,31.7,13.5,0034.67,0024.63
2021-08-12 09:42:00,FlowAlarm;OPCInstrumentWarning,0828.0,4.99,0.00,29.8,28.8,00.0,38.9,31.7,13.5,0034.28,0024.66
2021-08-12 09:43:00,FlowAlarm;OPCInstrumentWarning,0828.1,5.00,0.00,29.8,28.9,00.0,38.9,31.7,13.4,0034.26,0024.61
2021-08-12 09:44:00,FlowAlarm;OPCInstrumentWarning,0828.1,5.00,0.00,29.8,28.9,00.0,38.9,31.8,13.4,0034.66,0024.63
2021-08-12 09:45:00,FlowAlarm;OPCInstrumentWarning,0828.1,4.99,0.00,29.9,29.0,00.0,39.0,31.8,13.3,0035.52,0024.69
2021-08-12 09:46:00,FlowAlarm;OPCInstrumentWarning,0828.1,5.01,0.00,29.9,29.0,00.0,39.0,31.8,13.3,0035.52,0024.63
2021-08-12 09:47:00,FlowAlarm;OPCInstrumentWarning,0828.1,5.00,0.00,29.9,29.0,00.0,39.0,31.9,13.3,0036.31,0024.62
2021-08-12 09:48:00,FlowAlarm;OPCInstrumentWarning,0828.1,4.99,0.00,30.0,29.0,00.0,39.0,31.9,13.3,0038.21,0024.67
2021-08-12 09:49:00,FlowAlarm;OPCInstrumentWarning,0828.1,5.00,0.00,29.9,27.7,00.0,39.0,31.5,13.3,0038.74,0024.64
2021-08-12 09:50:00,FlowAlarm;OPCInstrumentWarning,0828.1,5.00,0.00,29.8,26.5,00.0,39.0,31.2,13.4,0039.13,0024.69
2021-08-12 09:51:00,FlowAlarm;OPCInstrumentWarning,0828.0,5.01,0.00,29.7,26.6,00.0,38.9,31.3,13.5,0040.10,0024.78
2021-08-12 09:52:00,FlowAlarm;OPCInstrumentWarning,0828.1,5.01,0.00,29.6,27.0,00.0,38.9,31.3,13.5,0039.09,0024.76
2021-08-12 09:53:00,FlowAlarm;OPCInstrumentWarning,0828.0,5.01,0.00,29.5,27.3,00.0,38.9,31.3,13.5,0039.14,0024.69
2021-08-12 09:54:00,FlowAlarm;OPCInstrumentWarning,0828.0,5.00,0.00,29.5,27.6,00.0,38.8,31.3,13.4,0038.60,0024.71
2021-08-12 09:55:00,FlowAlarm;OPCInstrumentWarning,0828.0,4.99,0.00,29.5,27.9,00.0,38.8,31.4,13.4,0038.18,0024.66
2021-08-12 09:56:00,FlowAlarm;OPCInstrumentWarning,0828.1,5.01,0.00,29.6,28.1,00.0,38.8,31.4,13.4,0038.40,0024.60
2021-08-12 09:57:00,FlowAlarm;OPCInstrumentWarning,0828.0,4.99,0.00,29.6,28.2,00.0,38.8,31.4,13.3,0038.44,0024.60
2021-08-12 09:58:00,FlowAlarm;OPCInstrumentWarning,0828.0,4.99,0.00,29.6,28.3,00.0,38.8,31.5,13.3,0037.98,0024.61
2021-08-12 09:59:00,FlowAlarm;OPCInstrumentWarning,0828.0,5.02,0.00,29.6,28.4,00.0,38.9,31.5,13.3,0036.29,0024.59
